Temperature
3 4 4 4 4 5 5 6 7 7 6 6 6 5 4 3 2 2 2 2 2 2 2 3 3 3 3 4 4 4 4 4 4 4 5 5 5 5 5 5 5 5 5 5
3 3 4 3 4 4 5 5 6 6 5 5 5 4 3 3 2 2 2 2 2 2 2 2 3 3 3 3 3 3 3 3 4 4 4 4 5 5 5 5 5 5 5 5
3 3 3 4 3 3 4 4 5 5 5 4 4 3 3 2 2 2 1 1 2 2 2 2 2 2 3 3 3 3 3 3 3 3 4 4 4 4 4 4 4 4 4 4
3 3 3 4 3 3 3 3 3 3 3 3 2 2 2 1 1 1 1 1 1 1 2 2 2 2 2 2 2 2 3 3 3 3 3 3 4 4 4 4 4 4 4 4
2 3 4 4 2 1 2 2 2 2 2 2 1 1 2 1 1 1 1 1 1 1 2 2 2 2 2 2 2 2 2 2 3 3 3 3 3 3 3 3 3 3 3 3
2 3 3 3 2 1 2 3 2 1 1 0 1 3 3 1 0 0 0 1 1 1 1 1 1 1 1 1 2 2 2 2 2 2 2 2 3 3 3 3 3 3 3 3
1 2 3 2 0 1 3 3 1 0 -0 -0 0 1 0 -0 -0 -0 -0 0 0 1 1 1 1 1 1 1 1 1 1 1 2 2 2 2 2 2 2 2 2 2 2 2
1 2 2 1 0 1 1 -0 -1 -1 -1 -1 -1 -1 -1 -1 -1 -1 -1 -0 -0 0 0 0 1 1 1 1 1 1 1 1 1 1 1 2 2 2 2 2 2 2 2 2
1 2 1 -1 -1 -1 -1 -1 -1 -2 -2 -2 -2 -2 -2 -2 -2 -1 -1 -1 -1 -1 -0 0 0 -0 0 0 0 0 0 1 1 1 1 1 1 1 1 1 1 1 1 1
-1 0 -1 -1 -2 -2 -2 -2 -2 -2 -2 -2 -2 -2 -2 -2 -2 -2 -2 -2 -1 -1 -1 -0 -0 -1 -1 -1 -1 -0 -0 0 0 1 1 1 1 1 1 1 1 1 1 1
-1 -0 -1 -1 -2 -2 -2 -2 -2 -2 -2 -3 -3 -3 -3 -3 -3 -3 -2 -2 -2 -2 -1 -1 -1 -1 -1 -1 -1 -1 -1 -0 -0 -0 0 0 0 0 0 0 0 0 1 1
0 -1 -1 -1 -2 -3 -3 -3 -3 -3 -3 -3 -3 -3 -3 -3 -3 -3 -3 -3 -2 -2 -2 -2 -2 -1 -2 -2 -2 -1 -1 -1 -1 -1 -1 -0 -0 -0 -0 -0 -0 0 0 0
-2 -3 -3 -3 -3 -3 -3 -3 -3 -3 -4 -4 -4 -4 -4 -4 -4 -3 -3 -3 -3 -3 -2 -2 -2 -2 -2 -2 -2 -2 -2 -2 -1 -1 -1 -1 -1 -1 -1 -1 -1 -0 -0 -0
-3 -4 -4 -4 -4 -4 -4 -4 -4 -4 -4 -4 -4 -4 -4 -4 -4 -4 -4 -3 -3 -3 -3 -3 -3 -2 -2 -2 -2 -2 -2 -2 -2 -2 -2 -2 -1 -1 -1 -1 -1 -1 -1 -1
-4 -4 -5 -5 -4 -4 -4 -4 -4 -4 -4 -4 -4 -5 -5 -4 -4 -4 -4 -4 -4 -3 -3 -3 -3 -3 -3 -3 -3 -3 -2 -2 -2 -2 -2 -2 -2 -2 -2 -2 -2 -2 -1 -1
-5 -5 -5 -5 -5 -5 -5 -5 -5 -5 -5 -5 -5 -5 -5 -5 -4 -4 -4 -4 -4 -4 -4 -3 -3 -3 -3 -3 -3 -3 -3 -3 -3 -3 -3 -3 -2 -2 -2 -2 -2 -2 -2 -2
-6 -6 -5 -6 -5 -6 -6 -6 -6 -6 -6 -6 -6 -5 -5 -5 -5 -4 -4 -4 -4 -4 -4 -4 -4 -4 -4 -3 -3 -3 -3 -3 -3 -3 -3 -3 -3 -3 -3 -3 -3 -3 -2 -2
-5 -6 -6 -6 -6 -6 -6 -6 -6 -6 -6 -6 -6 -6 -5 -5 -5 -5 -5 -5 -5 -4 -4 -4 -4 -4 -4 -4 -4 -4 -4 -4 -3 -3 -3 -3 -3 -3 -3 -3 -3 -3 -3 -3
-6 -6 -6 -6 -6 -6 -6 -6 -6 -6 -6 -6 -6 -6 -6 -6 -6 -6 -5 -5 -5 -5 -5 -5 -5 -5 -4 -4 -4 -4 -4 -4 -4 -4 -4 -4 -4 -4 -4 -4 -3 -3 -3 -3
-6 -6 -6 -6 -6 -6 -6 -6 -6 -6 -7 -7 -7 -7 -6 -6 -6 -6 -6 -6 -6 -5 -5 -5 -5 -5 -5 -5 -5 -5 -5 -5 -5 -4 -4 -4 -4 -4 -4 -4 -4 -4 -4 -3
-6 -6 -6 -7 -7 -7 -7 -7 -7 -7 -7 -7 -7 -7 -7 -7 -7 -7 -7 -6 -6 -6 -6 -6 -6 -6 -5 -5 -5 -5 -5 -5 -5 -5 -5 -5 -4 -4 -4 -4 -4 -4 -4 -4
-7 -7 -7 -7 -7 -7 -7 -7 -7 -7 -8 -8 -7 -7 -7 -7 -7 -7 -7 -7 -7 -7 -6 -6 -6 -6 -6 -6 -6 -6 -6 -5 -5 -5 -5 -5 -5 -5 -5 -4 -4 -4 -4 -4
-7 -7 -8 -8 -8 -8 -8 -8 -8 -8 -8 -8 -8 -8 -8 -8 -8 -8 -7 -7 -7 -7 -7 -7 -6 -6 -6 -6 -6 -6 -6 -6 -6 -6 -6 -5 -5 -5 -5 -5 -5 -5 -4 -4
-8 -8 -8 -8 -8 -8 -8 -8 -8 -8 -8 -8 -8 -8 -8 -8 -8 -8 -8 -8 -8 -7 -7 -7 -7 -7 -7 -7 -6 -6 -6 -6 -6 -6 -6 -6 -5 -5 -5 -5 -5 -5 -5 -5
-8 -8 -8 -9 -9 -9 -9 -9 -9 -9 -9 -9 -9 -9 -9 -9 -8 -8 -8 -8 -8 -8 -7 -7 -7 -7 -7 -7 -7 -6 -6 -6 -6 -6 -6 -6 -6 -5 -5 -5 -5 -5 -5 -5
-9 -9 -9 -9 -9 -9 -9 -10 -10 -9 -9 -9 -9 -9 -9 -9 -9 -9 -8 -8 -8 -8 -8 -8 -7 -7 -7 -7 -7 -7 -7 -6 -6 -6 -6 -6 -6 -6 -6 -6 -6 -5 -5 -5
-9 -9 -9 -9 -10 -10 -10 -10 -10 -10 -10 -10 -10 -10 -9 -9 -9 -9 -9 -8 -8 -8 -8 -8 -8 -8 -8 -7 -7 -7 -7 -7 -7 -6 -6 -6 -6 -6 -6 -6 -6 -6 -6 -6
Wind_Speed
3 3 3 4 6 7 8 8 6 5 5 5 5 4 2 2 2 2 2 2 2 2 3 3 2 2 2 2 2 2 1 1 2 2 1 1 1 1 1 1 1 1 2 2
3 3 2 3 5 7 8 8 8 7 6 5 4 2 1 1 1 2 2 2 3 3 3 3 3 2 2 2 3 2 1 2 2 1 1 1 0 1 1 1 1 1 2 2
2 3 2 4 5 6 5 4 5 7 6 3 3 3 3 2 2 3 3 3 3 3 3 3 3 3 3 3 2 2 2 2 2 1 1 1 1 1 1 1 1 2 2 2
1 1 4 0 2 2 4 3 3 3 3 4 4 5 3 2 2 3 4 4 4 4 4 4 3 3 2 2 2 2 2 2 2 1 1 1 1 1 1 1 1 1 2 2
2 2 4 3 1 1 3 3 2 3 4 5 4 4 2 1 3 4 5 5 4 4 4 4 3 3 2 2 2 1 2 2 2 2 1 1 1 2 1 1 1 2 2 2
2 3 3 2 3 2 2 3 1 2 3 3 2 3 3 4 5 6 5 4 4 4 3 3 3 2 2 2 2 2 2 3 3 2 2 2 2 2 1 2 2 1 1 2
4 4 3 3 3 1 3 2 3 3 3 3 3 5 6 6 6 5 5 4 4 3 3 3 3 2 2 2 3 3 3 3 2 2 2 2 1 1 1 1 1 1 1 1
3 4 4 2 1 1 2 3 4 4 4 5 5 5 5 5 5 5 5 4 4 3 3 3 2 2 2 3 3 3 3 2 2 2 1 1 1 1 1 1 0 0 1 1
4 3 2 0 2 2 3 4 5 5 5 4 5 5 5 5 5 5 5 4 4 3 3 3 3 2 3 3 3 3 2 2 2 2 1 1 1 0 0 0 0 0 1 1
3 4 4 3 3 4 4 5 5 5 4 4 4 5 5 5 5 5 4 4 4 3 3 3 3 3 3 3 3 2 2 2 1 1 1 1 1 1 0 1 1 1 1 1
5 5 5 3 3 4 4 4 4 4 3 3 4 4 5 5 5 4 4 4 3 3 3 4 4 4 4 3 2 2 2 1 1 1 1 0 1 1 1 1 1 1 1 1
5 4 4 4 4 4 4 5 4 4 4 4 3 4 4 4 4 4 4 4 4 4 4 4 4 4 4 3 3 2 2 1 1 1 1 0 0 1 3 3 3 3 2 2
5 4 5 5 5 4 4 5 4 4 4 4 4 3 4 4 4 4 4 4 4 4 4 4 4 4 4 4 3 3 2 2 1 1 1 1 1 1 1 2 3 3 3 2
4 3 4 3 4 4 3 4 3 3 3 3 3 3 3 4 4 4 4 4 5 5 4 4 3 4 4 3 3 2 2 2 1 1 1 1 1 1 1 1 1 2 2 3
3 3 4 4 3 3 3 3 3 3 3 3 3 3 4 4 5 5 5 5 4 4 4 4 3 4 3 3 3 2 2 1 1 1 1 1 1 1 1 0 1 1 1 2
3 2 3 3 3 3 3 3 3 4 4 4 4 4 5 5 5 5 5 4 4 5 5 4 4 4 3 3 3 2 2 2 1 1 1 1 1 1 1 1 0 1 1 2
2 2 3 3 4 4 4 4 4 5 5 5 5 5 5 5 5 5 4 4 4 5 5 4 4 4 3 3 3 2 2 1 1 1 1 1 1 1 1 1 1 1 1 1
4 4 4 5 5 5 5 5 4 5 5 5 5 5 5 5 5 6 5 5 4 5 4 4 4 3 3 3 2 2 2 2 2 1 1 1 1 1 1 1 1 1 1 1
3 3 4 4 4 5 5 5 5 5 5 4 5 5 5 5 5 6 5 5 5 5 4 4 4 3 3 2 2 2 2 2 2 2 1 2 1 1 1 1 1 1 1 1
2 3 3 4 4 4 5 4 4 4 4 4 4 5 5 5 5 5 5 5 5 4 4 4 4 3 3 3 2 2 2 2 2 2 2 2 2 1 1 1 1 1 1 1
3 3 4 4 4 4 4 4 4 5 4 4 5 5 5 6 5 5 4 4 4 4 4 4 3 3 3 2 2 2 2 2 2 2 2 1 1 1 1 1 1 1 1 1
3 4 4 4 4 4 4 3 4 4 4 4 4 5 5 5 5 4 5 4 4 5 4 3 3 3 3 2 2 2 2 2 2 2 2 2 2 1 1 1 1 1 1 1
4 4 4 4 4 4 4 4 4 4 4 4 5 5 5 5 4 4 4 4 3 4 4 3 3 4 3 2 2 2 2 2 2 2 2 2 2 2 2 2 1 1 1 1
4 4 4 3 3 3 4 4 3 3 4 4 4 4 4 4 4 4 4 5 5 5 4 4 4 4 3 2 2 2 2 2 2 2 2 2 2 2 2 2 2 2 2 2
4 3 3 3 3 3 4 3 3 3 3 3 4 4 4 3 4 4 4 4 4 5 3 3 3 3 2 2 2 2 2 2 2 2 2 2 2 2 2 2 2 2 2 2
3 3 3 4 4 3 3 3 3 3 3 3 3 3 3 3 3 3 3 3 4 4 3 2 2 2 2 2 2 2 2 2 2 2 2 2 2 2 2 2 2 2 1 1
3 3 2 3 3 3 3 3 3 3 3 3 3 3 3 3 3 3 3 3 3 3 2 2 2 2 2 2 2 2 2 2 2 2 2 2 2 2 2 2 2 2 2 2
Wind_Direction
281 271 244 242 235 222 219 228 235 244 254 289 311 320 338 1 14 27 26 14 6 354 350 354 356 355 354 350 348 340 330 318 307 304 302 313 331 331 275 256 254 251 250 246
283 268 248 268 260 237 236 238 238 247 266 302 319 334 338 348 344 339 335 333 336 337 337 335 335 337 336 336 336 329 327 323 317 302 301 306 314 326 334 281 256 246 245 245
276 294 270 267 258 229 218 229 229 240 261 293 306 307 305 311 306 305 310 316 321 321 315 314 316 313 311 315 323 323 326 328 330 301 287 292 286 283 294 300 273 255 258 255
261 242 225 296 47 245 217 248 262 268 288 295 286 292 289 292 299 308 312 311 314 315 312 313 314 312 312 310 310 321 333 337 332 319 293 286 273 273 281 286 287 278 270 272
209 235 263 289 323 279 233 272 297 272 295 313 326 299 275 347 329 312 312 311 308 308 305 305 310 317 313 308 307 314 325 323 315 305 287 270 269 270 280 283 290 295 284 274
207 230 243 322 351 316 238 254 18 326 313 328 333 271 296 341 326 322 323 322 318 313 308 306 316 319 307 306 307 310 311 308 302 290 275 263 263 266 279 282 287 296 289 284
227 237 264 321 324 238 221 314 351 311 304 302 283 288 308 317 319 321 323 325 324 315 309 308 312 304 292 300 308 314 311 307 303 294 280 275 271 266 266 276 288 297 302 305
214 223 251 15 123 202 309 338 320 310 306 299 297 303 307 314 320 323 326 327 328 321 321 320 313 298 294 303 313 316 313 310 308 305 300 287 277 284 265 244 245 312 325 332
218 231 323 164 234 312 326 309 310 308 305 300 297 299 308 311 315 319 320 322 324 320 323 325 315 296 290 307 315 316 314 312 322 333 330 317 298 277 259 242 234 281 292 314
247 259 277 283 286 302 303 297 300 301 300 297 295 298 303 305 309 314 317 319 320 316 317 319 316 309 304 309 309 306 304 309 320 337 344 342 347 333 283 254 259 277 291 298
249 274 286 268 297 307 314 311 312 318 309 299 299 297 299 302 305 310 312 314 310 305 303 310 317 316 317 316 304 293 290 291 301 309 308 344 11 0 317 315 304 279 279 284
249 258 263 279 305 314 311 310 311 311 314 315 301 293 298 300 304 307 307 310 310 307 305 308 312 313 317 313 297 283 274 272 279 280 283 291 359 23 24 15 23 13 351 322
264 283 276 278 294 308 301 304 307 302 298 305 308 299 297 300 305 306 304 304 304 304 303 302 305 308 312 311 299 280 266 262 264 261 246 257 274 276 328 8 31 34 21 8
260 272 270 276 293 311 309 313 312 308 308 307 308 309 306 304 305 304 304 305 303 301 297 294 295 301 309 303 295 285 275 266 260 249 242 241 256 264 272 306 341 352 6 22
267 261 262 281 292 301 312 316 316 316 324 324 319 313 310 306 304 304 306 309 306 300 295 293 289 295 308 298 290 284 279 260 250 245 241 242 253 256 262 268 309 330 341 0
278 265 257 264 279 294 299 300 299 302 309 310 310 311 309 305 301 301 303 304 302 298 293 290 288 293 298 290 280 272 268 277 276 244 231 227 221 221 231 239 271 304 328 342
238 255 260 273 280 283 280 280 283 287 292 296 302 308 308 306 302 302 306 305 295 291 288 282 287 293 289 280 266 258 254 246 257 245 228 226 220 221 225 228 240 269 293 324
245 256 259 265 270 275 278 277 278 282 286 294 299 300 298 297 298 303 308 309 304 301 296 289 289 288 284 277 263 253 243 236 232 231 227 225 225 227 227 228 236 256 295 316
246 254 263 265 269 271 271 272 276 281 286 288 289 292 294 293 293 297 302 300 295 296 302 301 299 295 285 282 281 250 239 233 231 230 225 212 219 226 226 225 232 251 269 283
253 262 266 272 273 268 268 273 277 279 282 285 286 290 292 296 296 294 294 287 281 285 291 291 287 279 274 269 267 243 235 231 230 228 229 221 217 222 225 222 226 239 245 248
261 270 273 277 278 275 269 270 271 276 284 282 277 281 288 294 294 288 285 288 297 299 293 286 279 270 268 265 252 235 226 224 224 228 233 233 227 226 223 225 230 233 239 249
257 265 273 276 277 279 278 274 269 272 278 281 282 282 284 290 295 292 282 279 291 298 296 282 272 269 266 261 236 230 225 224 226 230 237 238 233 230 227 230 237 238 238 242
254 260 267 271 274 282 284 275 268 267 270 275 280 282 283 286 288 287 291 293 292 293 291 277 275 275 267 250 237 228 223 222 226 231 235 238 239 234 230 232 237 240 241 243
253 258 265 273 273 271 274 280 281 277 276 278 279 282 283 286 291 288 282 287 299 300 289 279 282 276 265 251 239 234 230 230 230 231 235 237 241 236 228 227 231 233 236 241
249 254 253 252 255 262 270 280 285 284 283 287 290 293 289 283 284 293 294 291 297 303 296 285 290 281 264 255 247 242 238 237 236 231 229 229 234 235 231 230 233 236 240 248
241 247 249 249 252 259 263 266 273 280 285 290 297 302 302 300 294 293 294 295 294 298 298 290 280 272 260 252 248 247 246 244 239 239 240 239 241 238 236 236 242 241 248 260
241 244 248 254 253 250 253 258 265 270 273 276 286 295 297 297 297 299 299 299 300 298 294 287 276 266 260 257 255 254 249 245 241 238 240 243 247 242 239 244 246 250 247 247
Height
1483 1481 1481 1479 1479 1479 1478 1474 1472 1470 1473 1474 1476 1477 1477 1478 1477 1477 1476 1476 1475 1475 1475 1475 1475 1475 1475 1475 1475 1475 1475 1475 1475 1476 1476 1476 1476 1477 1477 1478 1478 1478 1478 1478
1483 1481 1480 1479 1478 1477 1477 1476 1474 1474 1476 1476 1477 1478 1478 1478 1477 1477 1476 1475 1475 1474 1474 1473 1473 1473 1473 1473 1473 1474 1474 1474 1473 1474 1474 1474 1474 1475 1475 1475 1475 1475 1475 1475
1479 1481 1479 1476 1477 1477 1476 1476 1475 1473 1475 1476 1477 1477 1478 1477 1477 1476 1476 1475 1474 1473 1473 1472 1472 1472 1471 1471 1472 1472 1472 1472 1471 1471 1471 1472 1472 1472 1472 1473 1473 1473 1473 1472
1481 1481 1480 1475 1479 1478 1477 1477 1478 1477 1477 1477 1477 1477 1477 1477 1476 1475 1475 1473 1473 1472 1471 1471 1471 1470 1470 1470 1470 1470 1470 1470 1469 1469 1469 1470 1470 1470 1470 1470 1470 1470 1470 1470
1483 1478 1474 1475 1478 1480 1479 1477 1479 1478 1478 1477 1476 1475 1475 1475 1474 1474 1473 1472 1471 1470 1469 1469 1469 1468 1468 1467 1468 1467 1468 1468 1467 1467 1467 1467 1468 1468 1468 1468 1468 1468 1468 1467
1484 1478 1474 1475 1479 1479 1480 1475 1478 1477 1477 1477 1476 1473 1472 1473 1473 1472 1471 1470 1469 1468 1467 1467 1466 1466 1466 1465 1465 1465 1465 1465 1465 1465 1465 1465 1465 1466 1466 1466 1465 1465 1465 1465
1483 1479 1475 1479 1480 1479 1477 1475 1478 1477 1477 1476 1476 1475 1474 1472 1471 1470 1469 1468 1467 1466 1465 1465 1465 1464 1464 1463 1463 1463 1463 1463 1463 1463 1463 1463 1463 1463 1463 1463 1463 1463 1463 1463
1482 1479 1479 1480 1479 1479 1478 1478 1477 1476 1476 1475 1474 1473 1471 1470 1469 1468 1466 1466 1465 1464 1464 1463 1463 1462 1462 1461 1461 1461 1460 1460 1460 1460 1460 1461 1461 1461 1461 1461 1461 1461 1461 1460
1482 1480 1480 1480 1479 1479 1479 1478 1477 1476 1474 1473 1472 1471 1470 1469 1467 1466 1465 1464 1463 1462 1462 1461 1461 1461 1460 1459 1459 1458 1458 1458 1458 1458 1458 1458 1458 1458 1459 1459 1459 1459 1459 1458
1482 1478 1479 1479 1478 1478 1477 1476 1475 1474 1472 1471 1470 1469 1468 1467 1465 1464 1463 1462 1461 1461 1460 1459 1459 1458 1458 1457 1457 1456 1456 1456 1456 1456 1456 1456 1456 1456 1456 1456 1456 1456 1456 1456
1479 1478 1477 1476 1476 1476 1475 1474 1473 1471 1470 1469 1468 1467 1466 1464 1463 1462 1461 1460 1459 1459 1458 1457 1456 1456 1455 1455 1454 1454 1454 1454 1454 1454 1453 1453 1453 1454 1454 1454 1454 1454 1454 1454
1474 1476 1476 1475 1475 1474 1473 1472 1471 1469 1468 1467 1466 1465 1464 1462 1461 1460 1459 1458 1457 1456 1455 1455 1454 1453 1453 1452 1452 1452 1451 1451 1451 1451 1451 1451 1451 1451 1451 1451 1451 1452 1452 1452
1474 1473 1474 1473 1472 1472 1471 1469 1468 1467 1466 1465 1464 1463 1461 1460 1459 1458 1457 1456 1455 1454 1453 1452 1452 1451 1450 1450 1450 1449 1449 1449 1449 1449 1449 1449 1449 1449 1449 1449 1449 1449 1449 1449
1471 1471 1471 1470 1470 1469 1468 1467 1466 1465 1464 1462 1461 1460 1459 1458 1457 1456 1455 1454 1453 1452 1451 1450 1449 1449 1448 1447 1447 1447 1447 1447 1447 1447 1447 1447 1447 1447 1447 1446 1446 1446 1447 1447
1468 1469 1468 1468 1467 1467 1466 1464 1463 1462 1461 1460 1459 1458 1457 1456 1455 1454 1453 1452 1450 1449 1448 1448 1447 1446 1446 1445 1445 1445 1444 1444 1444 1445 1444 1444 1444 1444 1444 1444 1444 1444 1445 1445
1466 1466 1465 1465 1465 1464 1463 1462 1461 1459 1458 1457 1457 1456 1455 1454 1453 1451 1450 1449 1448 1446 1446 1445 1444 1444 1443 1443 1442 1442 1442 1442 1442 1442 1442 1442 1442 1442 1442 1442 1442 1442 1442 1443
1464 1463 1463 1462 1462 1461 1460 1459 1458 1457 1456 1455 1454 1453 1452 1451 1450 1449 1448 1447 1445 1444 1443 1442 1441 1441 1440 1440 1440 1439 1439 1439 1439 1439 1439 1439 1440 1440 1440 1440 1440 1440 1440 1441
1461 1461 1461 1460 1459 1459 1458 1457 1456 1454 1453 1452 1451 1450 1449 1448 1447 1445 1444 1443 1442 1441 1440 1439 1438 1438 1437 1437 1437 1437 1436 1436 1436 1436 1436 1437 1437 1437 1438 1438 1438 1438 1438 1439
1459 1459 1458 1458 1457 1456 1455 1454 1453 1452 1450 1449 1448 1447 1446 1445 1444 1442 1441 1440 1439 1437 1437 1436 1435 1435 1434 1434 1434 1434 1434 1433 1433 1433 1434 1434 1434 1435 1435 1435 1435 1436 1436 1436
1457 1456 1455 1455 1454 1453 1452 1450 1449 1448 1447 1446 1445 1444 1443 1442 1441 1440 1438 1437 1436 1435 1434 1433 1432 1432 1431 1431 1431 1431 1431 1431 1431 1431 1431 1431 1432 1432 1432 1432 1433 1433 1433 1434
1454 1453 1452 1451 1450 1449 1448 1447 1446 1445 1444 1443 1442 1441 1440 1439 1438 1436 1435 1433 1433 1432 1431 1430 1429 1429 1428 1428 1428 1428 1428 1428 1428 1428 1429 1429 1429 1429 1429 1430 1430 1430 1431 1431
1450 1450 1449 1448 1447 1446 1445 1444 1442 1441 1440 1440 1439 1438 1437 1436 1435 1433 1432 1431 1430 1429 1428 1427 1426 1426 1426 1426 1425 1425 1425 1425 1426 1426 1426 1426 1427 1427 1427 1427 1427 1427 1428 1428
1447 1446 1445 1444 1443 1442 1441 1440 1439 1438 1437 1436 1436 1435 1434 1433 1432 1430 1429 1428 1427 1426 1425 1424 1423 1423 1423 1423 1422 1422 1422 1423 1423 1423 1423 1424 1424 1424 1424 1425 1425 1425 1425 1426
1443 1442 1442 1441 1439 1438 1437 1436 1436 1435 1434 1433 1433 1432 1431 1430 1428 1428 1427 1425 1424 1423 1422 1421 1421 1420 1420 1420 1420 1420 1420 1420 1420 1421 1421 1421 1421 1422 1422 1422 1422 1423 1423 1423
1439 1438 1438 1437 1436 1435 1434 1433 1432 1431 1431 1430 1429 1429 1428 1427 1426 1425 1424 1422 1421 1420 1419 1418 1418 1418 1417 1417 1417 1417 1417 1418 1418 1418 1418 1419 1419 1419 1420 1420 1420 1420 1420 1421
1435 1435 1434 1433 1433 1432 1431 1430 1429 1428 1427 1427 1426 1425 1425 1424 1423 1422 1421 1420 1419 1418 1417 1416 1415 1415 1414 1414 1414 1414 1415 1415 1415 1416 1416 1416 1416 1417 1417 1417 1418 1418 1418 1418
1432 1431 1431 1430 1429 1429 1428 1427 1427 1426 1425 1424 1423 1422 1422 1421 1420 1419 1418 1417 1416 1415 1414 1414 1413 1412 1412 1412 1412 1412 1412 1412 1412 1413 1413 1413 1414 1414 1415 1415 1415 1416 1416 1416